Vertical_Velocity
0 -1 -0 1 -0 1 -2 1 -0 -1 -1 2 -1 -1 -3 -3 1 1 0 -0 -3 -0 -0 -2 0 -2 -0 -1 -1 -1 0 -0 -2 0 -3 -0 -0 -0 -2 -1 -1 -1 1 0 1
-1 1 -1 1 0 0 1 -0 -1 0 0 -0 -1 -0 -4 -4 -3 1 1 2 -2 2 -2 1 -1 -0 0 -1 1 -1 1 -4 -3 -1 -1 0 -1 -0 1 1 1 -2 -3 4 1
-7 -1 -1 -0 -0 1 2 -0 -1 0 -1 -1 -1 -1 -2 -4 -3 2 -1 2 -1 2 -4 2 4 4 1 -0 0 0 -1 -1 -2 -0 1 -0 1 1 0 0 -1 -3 -2 6 1
6 -4 -3 -4 2 -1 -0 0 -2 1 -3 -0 -1 -1 -2 -3 -4 1 2 3 -1 1 -3 1 2 1 -1 0 0 2 -0 0 -2 1 -1 0 0 0 -0 -0 1 1 0 1 7
-3 6 -1 -4 -2 -1 -3 2 1 -3 -1 -0 -2 -1 -3 -3 -10 1 -0 2 -1 -1 -2 -2 3 1 -0 -0 1 1 -1 1 1 -0 1 1 0 0 -2 1 3 2 5 -0 2
2 -5 2 2 -4 -1 -3 1 0 -0 -2 -0 -1 0 1 -4 -1 1 3 3 -0 -3 -2 0 1 -0 -0 -0 1 -1 0 0 -1 0 0 -1 -1 -1 -2 2 0 -2 2 3 2
0 2 2 -2 0 -3 -2 -2 3 -2 2 -1 -0 0 -0 -19 2 -1 1 2 2 -2 -1 3 2 0 1 -0 1 -0 1 0 0 0 0 -1 -1 -0 1 0 2 3 0 4 1
-4 3 -6 10 -3 -2 -3 -4 4 -4 1 -1 0 1 -16 1 -0 -2 2 2 2 -0 1 1 0 -0 0 1 -1 -1 -3 -1 -0 0 -1 2 -2 0 -0 0 4 -1 4 1 17
-2 -1 -0 -0 2 -6 -4 -3 2 -5 -0 2 1 2 -14 1 -2 4 2 1 4 -0 4 2 3 1 1 -1 -1 -2 -0 -0 -2 -0 0 3 -1 -0 -2 2 1 0 1 -1 -1
4 2 -6 3 1 -1 -3 -3 3 -5 1 -0 4 -1 1 0 1 2 2 1 1 2 0 5 0 -0 -0 -0 -3 -1 0 0 -0 -0 1 0 -0 1 -1 1 -1 1 1 1 0
0 0 5 1 -2 4 -3 -8 -4 6 1 -7 3 -1 2 0 0 -0 3 2 3 2 -0 1 -0 -1 -3 -2 -1 -1 -0 -0 -1 -1 3 -1 -0 -3 -1 3 1 -2 -0 -1 -2
-3 2 1 3 -5 2 -0 2 -2 5 -12 -4 -4 -5 -3 3 -6 2 3 1 0 -1 1 -1 -1 -2 -0 0 -1 1 0 -2 -2 -0 3 0 -2 -1 0 -6 -4 -3 -3 -2 4
-3 3 -0 -1 5 -7 2 1 -3 7 4 -11 -0 2 -10 7 -7 -11 1 2 -2 1 -0 -2 -3 0 -1 1 1 0 -1 -0 1 -0 -0 0 0 1 -1 2 2 -0 3 2 -4
4 -1 -1 4 3 -4 -3 4 3 7 2 -13 -0 -2 3 3 -5 -2 2 -7 1 -5 -1 -2 -1 -0 1 -0 -1 1 -1 -0 0 1 1 2 -2 -0 -0 -1 1 -0 -1 -2 -4
0 -4 3 -0 6 -0 -3 5 0 -1 2 -10 2 4 2 0 -2 -1 -1 4 -3 -1 -3 -9 0 1 1 -5 -0 -6 -1 -1 -0 -0 1 0 2 -4 0 1 -3 -4 -3 -3 -4
2 -1 3 1 -0 3 4 0 3 2 -15 -4 0 -0 1 1 1 5 1 4 2 -2 -0 -3 0 -1 -5 -1 -1 -0 -0 -1 -1 -1 1 -0 2 -4 -1 -3 -1 -2 -2 -5 -4
1 1 6 3 -5 11 4 -4 1 4 -9 -4 -1 1 -0 0 2 -0 0 3 -4 0 1 -0 -1 -0 -0 0 1 -0 -2 -0 0 1 -2 0 1 -10 -2 -2 -1 -1 -2 -2 1
5 1 3 -4 4 6 2 4 10 -6 -3 -3 -0 -0 -2 -3 -2 1 2 2 1 -2 -1 -2 -1 -1 -1 -3 -6 -1 -3 -4 -2 -1 -1 0 -2 -8 -2 -1 -0 1 1 -0 2
10 -2 1 -8 -3 9 12 8 -12 -3 -3 1 1 -0 0 0 -2 -0 -1 -2 -5 -3 -6 -2 -3 0 0 -0 -2 0 1 -0 -4 0 1 -2 -5 -3 -0 -2 -2 -1 1 -1 0
0 6 -4 -8 -1 15 9 -12 -1 -1 -0 1 -0 -2 -1 -0 1 2 -0 -5 -1 -2 -2 -3 -1 -0 1 0 1 -3 -3 1 -1 -0 0 -1 -1 -4 -2 -1 -1 -2 -1 0 -1
18 15 -5 -10 15 20 -3 -6 1 -3 2 -0 -0 0 -1 -2 -2 -1 -5 -2 1 1 -1 -2 -5 -1 -0 -0 -5 2 1 -1 -4 -1 -1 -0 -4 -5 -2 -0 -0 -1 -2 -0 -0
5 10 9 -2 21 -1 -0 -15 -7 -6 4 -1 1 1 -0 -0 -0 1 -5 -3 -0 -7 -2 -4 -4 -1 -6 -1 -0 -1 -2 -3 -3 0 0 -0 -11 -1 -1 -1 1 -1 -2 -1 -0
6 -9 15 -0 -0 1 2 -3 -2 4 -2 1 -0 -0 0 0 -1 -0 -0 -3 -1 -2 -7 -4 -1 0 0 -1 -1 0 0 -1 -1 -1 -3 1 -9 -0 -0 -1 0 -2 2 -3 -3
6 4 16 30 -3 -0 0 -4 3 0 0 1 -2 1 0 0 0 -0 0 -0 1 -0 1 -3 -0 -6 -8 -11 -4 1 1 0 -4 -1 -2 -5 -5 -3 -2 -1 -3 -1 -1 1 -1
5 -6 -17 -2 9 3 6 -1 2 3 1 2 4 -0 -2 0 -0 -0 0 1 1 0 0 -5 -2 0 -1 -1 0 -1 -1 0 0 -4 -3 -11 -1 -6 -3 -1 -2 2 -1 -1 3
-6 -4 9 -0 6 11 -0 -7 -5 4 -4 -0 2 -1 1 -0 -5 -0 -1 -1 0 0 0 0 -1 -0 1 1 0 0 -0 0 -0 0 1 1 -3 -3 -1 0 -1 -1 -1 -1 -1
-9 -4 4 -12 3 11 -19 -12 -7 1 0 -6 -5 1 4 -13 3 1 2 0 -1 -1 -0 -0 -2 -1 -2 -0 0 -3 -5 -1 -1 -0 -3 -0 -13 -0 -0 0 -0 -0 -0 -0 -0
Height
1547 1546 1544 1543 1542 1540 1538 1537 1534 1532 1530 1527 1525 1522 1520 1516 1513 1511 1510 1511 1510 1511 1512 1513 1514 1515 1515 1516 1517 1517 1519 1521 1516 1514 1506 1506 1507 1508 1509 1510 1511 1510 1509 1510 1512
1544 1543 1542 1541 1540 1538 1536 1535 1533 1531 1528 1526 1523 1520 1518 1514 1511 1510 1511 1509 1510 1511 1511 1512 1512 1513 1514 1514 1516 1518 1518 1512 1507 1506 1506 1505 1506 1506 1507 1508 1509 1509 1509 1510 1512
1540 1541 1540 1539 1538 1536 1535 1533 1531 1529 1526 1524 1521 1518 1516 1513 1510 1509 1509 1509 1509 1510 1511 1512 1512 1512 1512 1514 1515 1515 1510 1508 1505 1504 1505 1505 1506 1505 1506 1506 1506 1507 1507 1510 1511
1536 1537 1536 1536 1535 1534 1533 1531 1528 1527 1524 1522 1519 1516 1514 1512 1514 1508 1509 1509 1509 1509 1511 1511 1511 1510 1511 1512 1513 1514 1508 1508 1505 1504 1505 1505 1506 1506 1507 1506 1505 1506 1508 1510 1511
1532 1532 1532 1533 1532 1531 1530 1529 1527 1525 1522 1519 1517 1514 1513 1510 1507 1507 1508 1507 1508 1509 1510 1511 1511 1509 1510 1511 1512 1511 1508 1506 1506 1506 1507 1507 1509 1508 1507 1505 1502 1506 1508 1511 1514
1527 1528 1527 1526 1528 1527 1526 1526 1524 1522 1519 1517 1515 1513 1512 1510 1503 1504 1506 1507 1508 1508 1509 1510 1510 1509 1509 1510 1510 1508 1508 1507 1507 1507 1508 1509 1509 1509 1509 1508 1508 1508 1510 1512 1514
1522 1522 1523 1523 1521 1523 1522 1521 1521 1519 1516 1514 1512 1511 1508 1502 1501 1502 1503 1505 1507 1507 1508 1509 1509 1509 1509 1508 1508 1507 1507 1507 1508 1507 1508 1508 1508 1509 1510 1511 1510 1511 1511 1513 1516
1518 1518 1519 1519 1517 1518 1517 1517 1516 1514 1511 1511 1509 1508 1501 1497 1498 1499 1501 1503 1505 1506 1507 1507 1507 1507 1507 1508 1508 1507 1508 1510 1508 1508 1507 1508 1508 1510 1510 1512 1512 1512 1514 1516 1516
1514 1514 1515 1515 1513 1513 1513 1513 1511 1509 1507 1506 1506 1505 1496 1493 1493 1495 1498 1501 1503 1504 1505 1505 1506 1505 1506 1507 1511 1511 1514 1513 1508 1506 1507 1508 1508 1507 1510 1512 1513 1512 1514 1517 1518
1509 1509 1511 1512 1511 1510 1509 1510 1507 1504 1502 1502 1501 1506 1493 1491 1491 1492 1495 1499 1501 1503 1504 1504 1504 1506 1508 1508 1516 1513 1514 1513 1511 1506 1506 1505 1505 1506 1508 1510 1512 1513 1514 1517 1518
1504 1505 1507 1508 1509 1508 1507 1508 1508 1504 1497 1496 1493 1490 1488 1489 1489 1490 1492 1496 1499 1502 1504 1503 1504 1505 1502 1504 1504 1506 1509 1510 1506 1504 1505 1504 1502 1502 1505 1509 1511 1512 1513 1515 1516
1499 1501 1504 1504 1506 1505 1505 1507 1509 1507 1497 1489 1487 1484 1486 1487 1490 1487 1490 1493 1495 1499 1502 1505 1504 1499 1500 1502 1503 1506 1508 1507 1503 1504 1504 1503 1500 1501 1504 1501 1504 1507 1510 1513 1516
1495 1499 1499 1501 1503 1503 1503 1506 1506 1505 1501 1479 1476 1473 1476 1483 1483 1482 1486 1487 1490 1498 1500 1503 1499 1497 1499 1503 1505 1505 1506 1507 1506 1505 1502 1502 1499 1501 1501 1502 1504 1505 1505 1508 1510
1491 1494 1496 1499 1503 1501 1501 1504 1504 1503 1503 1477 1470 1465 1469 1474 1478 1478 1481 1485 1488 1492 1498 1499 1495 1497 1499 1501 1502 1506 1498 1501 1505 1505 1504 1503 1504 1498 1497 1498 1499 1498 1501 1501 1504
1486 1490 1493 1497 1498 1498 1500 1502 1502 1504 1504 1466 1465 1465 1465 1469 1466 1470 1478 1481 1485 1489 1494 1495 1496 1496 1498 1498 1498 1498 1497 1499 1501 1505 1507 1507 1506 1489 1496 1495 1489 1489 1492 1493 1496
1481 1485 1489 1492 1492 1495 1497 1500 1502 1507 1498 1465 1462 1463 1467 1467 1464 1468 1474 1478 1481 1487 1489 1491 1491 1491 1491 1492 1493 1494 1498 1502 1505 1506 1510 1506 1506 1492 1486 1482 1481 1482 1485 1486 1489
1474 1479 1483 1488 1488 1493 1496 1501 1503 1500 1471 1462 1460 1460 1463 1465 1464 1464 1470 1475 1480 1492 1495 1491 1490 1488 1488 1491 1493 1494 1498 1508 1513 1513 1507 1506 1509 1490 1481 1479 1477 1474 1476 1478 1481
1469 1474 1476 1479 1487 1490 1494 1500 1490 1473 1469 1458 1455 1458 1461 1461 1462 1463 1469 1474 1476 1479 1493 1493 1497 1486 1484 1484 1488 1493 1494 1504 1513 1514 1507 1510 1503 1482 1477 1477 1474 1471 1472 1472 1474
1465 1468 1469 1473 1482 1486 1490 1485 1466 1465 1461 1459 1454 1460 1461 1459 1460 1461 1465 1466 1467 1471 1482 1494 1492 1482 1482 1482 1484 1493 1496 1497 1510 1520 1516 1504 1494 1479 1477 1475 1472 1469 1468 1467 1469
1458 1461 1461 1470 1478 1481 1481 1462 1460 1456 1454 1454 1456 1453 1457 1458 1461 1460 1466 1460 1464 1465 1467 1478 1487 1481 1482 1482 1486 1486 1490 1499 1504 1513 1513 1503 1503 1488 1474 1472 1472 1469 1466 1466 1466
1454 1455 1450 1464 1474 1473 1457 1452 1454 1452 1453 1455 1454 1454 1451 1453 1453 1459 1457 1455 1455 1463 1466 1473 1479 1487 1482 1482 1480 1490 1491 1496 1496 1502 1503 1507 1492 1477 1472 1470 1471 1470 1466 1464 1464
1445 1443 1444 1456 1461 1454 1444 1443 1450 1451 1452 1453 1453 1452 1450 1448 1451 1454 1451 1448 1448 1453 1466 1468 1476 1487 1479 1477 1476 1477 1479 1484 1494 1501 1507 1505 1492 1469 1469 1468 1469 1468 1467 1464 1463
1432 1438 1442 1444 1439 1435 1436 1442 1445 1448 1447 1449 1450 1449 1447 1447 1450 1449 1447 1443 1446 1450 1457 1465 1476 1483 1480 1481 1478 1477 1478 1481 1488 1495 1497 1498 1484 1467 1466 1464 1463 1462 1463 1463 1463
1427 1429 1431 1433 1425 1424 1430 1431 1438 1442 1445 1446 1446 1447 1448 1446 1444 1444 1445 1443 1445 1446 1448 1452 1467 1469 1475 1470 1470 1477 1474 1477 1477 1491 1485 1485 1472 1466 1462 1461 1459 1458 1459 1459 1459
1413 1412 1412 1412 1418 1414 1419 1420 1427 1434 1440 1442 1444 1445 1445 1449 1444 1444 1443 1444 1446 1447 1448 1450 1461 1466 1464 1464 1465 1464 1465 1472 1473 1470 1477 1467 1474 1460 1457 1455 1456 1455 1455 1454 1454
1395 1402 1404 1401 1407 1419 1414 1411 1416 1426 1428 1433 1437 1439 1443 1445 1442 1443 1444 1445 1447 1451 1450 1450 1457 1462 1464 1467 1465 1465 1461 1466 1468 1469 1469 1468 1465 1455 1452 1452 1452 1453 1451 1450 1449
1382 1391 1393 1390 1396 1407 1400 1403 1410 1419 1426 1428 1434 1437 1440 1438 1440 1443 1445 1445 1446 1447 1451 1453 1455 1464 1465 1469 1467 1474 1462 1459 1459 1458 1457 1461 1448 1451 1451 1450 1451 1451 1450 1448 1447